When you browse on this site, cookies collect data to enhance your experience and personalize the content and advertising you see.
Visit our Privacy Policy to learn more. By continuing to use the site, you agree to this use of cookies and data.
  • In Hungary
  • List of Countries
  • For 7 days
  • Water Temperature
  • Satellite Maps
  • Weather Map
  • News
  • Weather Widgets
  • user-avatar
    Login

    Hourly Weather Lisburn

    Today, 20 January, Sunday

    Time Temperature Precipitation Wind Pressure Humidity
    00:00 +5°C° 0 mm 1 mps 754 mmHg 94%
    01:00 +5°C° 0 mm 1 mps 754 mmHg 94%
    02:00 +5°C° 0 mm 1 mps 755 mmHg 94%
    03:00 +3°C° 0 mm 0 mps 755 mmHg 94%
    04:00 +4°C° 0 mm 1 mps 755 mmHg 94%
    05:00 +4°C° 0 mm 1 mps 756 mmHg 95%
    06:00 +4°C° 0 mm 1 mps 757 mmHg 95%
    07:00 +3°C° 0.4 mm 3 mps 757 mmHg 93%
    08:00 +4°C° 0.4 mm 4 mps 758 mmHg 91%
    09:00 +4°C° 0.4 mm 6 mps 759 mmHg 89%
    10:00 +4°C° 0 mm 6 mps 760 mmHg 86%
    11:00 +4°C° 0 mm 7 mps 761 mmHg 82%
    12:00 +4°C° 0 mm 7 mps 762 mmHg 79%
    13:00 +4°C° 0 mm 6 mps 762 mmHg 77%
    14:00 +4°C° 0 mm 6 mps 763 mmHg 76%
    15:00 +5°C° 0 mm 5 mps 763 mmHg 74%
    16:00 +3°C° 0 mm 5 mps 764 mmHg 76%
    17:00 +3°C° 0 mm 4 mps 764 mmHg 78%
    18:00 +2°C° 0 mm 3 mps 765 mmHg 81%
    19:00 +2°C° 0 mm 3 mps 765 mmHg 82%
    20:00 +1°C° 0 mm 3 mps 765 mmHg 83%
    21:00 +2°C° 0 mm 2 mps 766 mmHg 84%
    22:00 +1°C° 0 mm 2 mps 766 mmHg 86%
    23:00 +1°C° 0 mm 2 mps 766 mmHg 87%

    Tomorrow, 21 January, Monday

    Time Temperature Precipitation Wind Pressure Humidity
    00:00 +1°C° 0 mm 2 mps 766 mmHg 88%
    01:00 +1°C° 0 mm 2 mps 766 mmHg 88%
    02:00 -1°C° 0 mm 2 mps 765 mmHg 88%
    03:00 -1°C° 0 mm 2 mps 765 mmHg 88%
    04:00 -1°C° 0 mm 2 mps 764 mmHg 87%
    05:00 -1°C° 0 mm 2 mps 764 mmHg 86%
    06:00 -1°C° 0 mm 2 mps 763 mmHg 86%
    07:00 0°C° 0 mm 3 mps 762 mmHg 85%
    08:00 0°C° 0 mm 3 mps 762 mmHg 84%
    09:00 0°C° 0 mm 3 mps 761 mmHg 84%
    10:00 0°C° 0 mm 5 mps 760 mmHg 78%
    11:00 +1°C° 0 mm 6 mps 759 mmHg 73%
    12:00 +2°C° 0 mm 7 mps 757 mmHg 67%
    13:00 +2°C° 0.2 mm 7 mps 755 mmHg 70%
    14:00 +2°C° 0.2 mm 7 mps 753 mmHg 73%
    15:00 +1°C° 0.2 mm 8 mps 752 mmHg 75%
    16:00 +1°C° 1.1 mm 8 mps 750 mmHg 80%
    17:00 +1°C° 1.1 mm 8 mps 749 mmHg 84%
    18:00 +1°C° 1.1 mm 9 mps 747 mmHg 88%
    19:00 +1°C° 0.8 mm 8 mps 747 mmHg 87%
    20:00 +1°C° 0.8 mm 6 mps 746 mmHg 85%
    21:00 0°C° 0.8 mm 5 mps 745 mmHg 83%
    22:00 -1°C° 0 mm 6 mps 745 mmHg 83%
    23:00 -1°C° 0 mm 7 mps 745 mmHg 82%

    Day after tomorrow, 22 January, Tuesday

    Time Temperature Precipitation Wind Pressure Humidity
    00:00 -1°C° 0 mm 7 mps 745 mmHg 82%
    01:00 -2°C° 0 mm 7 mps 745 mmHg 82%
    02:00 -2°C° 0 mm 7 mps 745 mmHg 82%
    03:00 -2°C° 0 mm 7 mps 745 mmHg 82%
    04:00 -2°C° 0 mm 7 mps 745 mmHg 82%
    05:00 -2°C° 0 mm 7 mps 745 mmHg 81%
    06:00 -3°C° 0 mm 6 mps 745 mmHg 81%
    07:00 -3°C° 0 mm 6 mps 745 mmHg 80%
    08:00 -3°C° 0 mm 6 mps 746 mmHg 80%
    09:00 -3°C° 0 mm 6 mps 746 mmHg 79%
    10:00 -2°C° 0 mm 6 mps 746 mmHg 77%
    11:00 -1°C° 0 mm 6 mps 747 mmHg 74%
    12:00 -1°C° 0 mm 6 mps 747 mmHg 72%
    13:00 -1°C° 0 mm 6 mps 747 mmHg 72%
    14:00 -1°C° 0 mm 6 mps 747 mmHg 71%
    15:00 -1°C° 0 mm 6 mps 747 mmHg 71%
    16:00 -1°C° 0 mm 6 mps 747 mmHg 73%
    17:00 -1°C° 0 mm 6 mps 747 mmHg 75%
    18:00 -2°C° 0 mm 6 mps 748 mmHg 77%
    19:00 -2°C° 0.1 mm 6 mps 748 mmHg 77%
    20:00 -2°C° 0.1 mm 6 mps 748 mmHg 77%
    21:00 -2°C° 0.1 mm 6 mps 749 mmHg 77%
    22:00 -2°C° 0 mm 6 mps 749 mmHg 78%
    23:00 -1°C° 0 mm 5 mps 749 mmHg 79%

    23 January, Wednesday

    Time Temperature Precipitation Wind Pressure Humidity
    00:00 -1°C° 0 mm 5 mps 749 mmHg 80%
    01:00 -1°C° 0 mm 5 mps 749 mmHg 80%
    02:00 -1°C° 0 mm 5 mps 750 mmHg 80%
    03:00 -1°C° 0 mm 5 mps 750 mmHg 80%
    04:00 -1°C° 0 mm 5 mps 750 mmHg 80%
    05:00 -1°C° 0 mm 5 mps 750 mmHg 80%
    06:00 -1°C° 0 mm 5 mps 750 mmHg 80%
    07:00 -1°C° 0 mm 4 mps 751 mmHg 82%
    08:00 -1°C° 0 mm 4 mps 751 mmHg 83%
    09:00 -1°C° 0 mm 4 mps 752 mmHg 84%
    10:00 0°C° 0 mm 5 mps 752 mmHg 81%
    11:00 +1°C° 0 mm 5 mps 752 mmHg 78%
    12:00 +2°C° 0 mm 5 mps 752 mmHg 75%
    13:00 +2°C° 0 mm 5 mps 752 mmHg 76%
    14:00 +2°C° 0 mm 5 mps 752 mmHg 76%
    15:00 +2°C° 0 mm 5 mps 752 mmHg 77%
    16:00 +1°C° 0 mm 4 mps 753 mmHg 81%
    17:00 0°C° 0 mm 4 mps 753 mmHg 84%
    18:00 -1°C° 0 mm 4 mps 753 mmHg 88%
    19:00 0°C° 0 mm 3 mps 754 mmHg 89%
    20:00 0°C° 0 mm 3 mps 754 mmHg 89%
    21:00 0°C° 0 mm 3 mps 754 mmHg 90%
    22:00 0°C° 0 mm 3 mps 755 mmHg 90%
    23:00 0°C° 0 mm 3 mps 755 mmHg 90%

    24 January, Thursday

    Time Temperature Precipitation Wind Pressure Humidity
    00:00 0°C° 0 mm 3 mps 755 mmHg 91%
    01:00 0°C° 0 mm 3 mps 755 mmHg 91%
    02:00 0°C° 0 mm 3 mps 756 mmHg 91%
    03:00 0°C° 0 mm 3 mps 756 mmHg 90%
    04:00 0°C° 0 mm 3 mps 756 mmHg 90%
    05:00 0°C° 0 mm 3 mps 757 mmHg 91%
    06:00 0°C° 0 mm 3 mps 757 mmHg 91%
    07:00 0°C° 0 mm 3 mps 758 mmHg 91%
    08:00 +2°C° 0 mm 2 mps 758 mmHg 90%
    09:00 +2°C° 0 mm 2 mps 759 mmHg 90%
    10:00 +3°C° 0 mm 2 mps 759 mmHg 87%
    11:00 +4°C° 0 mm 2 mps 760 mmHg 83%
    12:00 +5°C° 0 mm 2 mps 760 mmHg 80%
    13:00 +6°C° 0 mm 1 mps 760 mmHg 80%
    14:00 +6°C° 0 mm 1 mps 760 mmHg 81%
    15:00 +6°C° 0 mm 1 mps 760 mmHg 81%
    16:00 +4°C° 0 mm 0 mps 761 mmHg 82%
    17:00 +4°C° 0 mm 0 mps 761 mmHg 82%
    18:00 +4°C° 0 mm 0 mps 761 mmHg 82%
    19:00 +5°C° 0 mm 1 mps 762 mmHg 82%
    20:00 +5°C° 0 mm 1 mps 762 mmHg 82%
    21:00 +4°C° 0 mm 1 mps 763 mmHg 83%
    22:00 +4°C° 0 mm 2 mps 763 mmHg 82%
    23:00 +4°C° 0 mm 2 mps 763 mmHg 82%

    25 January, Friday

    Time Temperature Precipitation Wind Pressure Humidity
    00:00 +4°C° 0 mm 2 mps 763 mmHg 81%
    01:00 +4°C° 0 mm 2 mps 763 mmHg 82%
    02:00 +3°C° 0 mm 3 mps 763 mmHg 83%
    03:00 +3°C° 0 mm 3 mps 763 mmHg 83%
    04:00 +3°C° 0 mm 3 mps 763 mmHg 85%
    05:00 +3°C° 0 mm 3 mps 763 mmHg 87%
    06:00 +3°C° 0 mm 3 mps 763 mmHg 88%
    07:00 +3°C° 0 mm 3 mps 764 mmHg 91%
    08:00 +4°C° 0 mm 2 mps 764 mmHg 93%
    09:00 +4°C° 0 mm 2 mps 764 mmHg 95%
    10:00 +5°C° 0 mm 2 mps 764 mmHg 94%
    11:00 +6°C° 0 mm 2 mps 764 mmHg 93%
    12:00 +5°C° 0 mm 3 mps 765 mmHg 92%
    13:00 +7°C° 0 mm 2 mps 764 mmHg 92%
    14:00 +7°C° 0 mm 2 mps 764 mmHg 93%
    15:00 +7°C° 0 mm 2 mps 764 mmHg 93%
    16:00 +7°C° 0 mm 2 mps 764 mmHg 94%
    17:00 +6°C° 0 mm 2 mps 764 mmHg 95%
    18:00 +4°C° 0 mm 3 mps 764 mmHg 96%
    19:00 +4°C° 0 mm 3 mps 764 mmHg 96%
    20:00 +4°C° 0 mm 3 mps 764 mmHg 96%
    21:00 +4°C° 0 mm 3 mps 764 mmHg 96%
    22:00 +4°C° 0 mm 3 mps 763 mmHg 95%
    23:00 +4°C° 0 mm 3 mps 763 mmHg 94%
    Show more